Regional Weather Roundup
Issued by NWS Sioux Falls, SD

Home | Current Version | Previous Version | Graphics & Text | Print | Product List | Glossary On
Versions: 1 2 3 4 5 6 7 8 9 10 11 12 13 14 15 16 17 18 19 20 21 22 23 24 25 26 27 28 29 30 31 32 33 34 35 36 37 38 39 40 41 42 43 44 45 46 47 48 49 50
000
ASUS43 KFSD 300210
RWRFSD

WEATHER ROUNDUP FOR SE SOUTH DAKOTA/SW MINNESOTA/NW IOWA
NATIONAL WEATHER SERVICE SIOUX FALLS SD
900 PM CDT SAT AUG 29 2015

NOTE: "FAIR" INDICATES FEW OR NO CLOUDS BELOW 12,000 FEET WITH NO
SIGNIFICANT WEATHER AND OR OBSTRUCTIONS TO VISIBILITY.


SDZ038>040-050-052>070-300300-
SOUTHEAST SOUTH DAKOTA

CITY           SKY/WX    TMP DP  RH WIND       PRES   REMARKS
BROOKINGS      CLEAR     66  63  88 S9        30.00S
CHAMBERLAIN    CLEAR     72  67  84 SE6       29.92S
HURON          CLEAR     72  67  84 SE12      29.92S
MADISON        FAIR      66  66 100 S10       29.99S
MITCHELL       CLEAR     71  67  87 SE12      29.95S
SIOUX FALLS    MOCLDY    68  64  87 SE9       30.01R
WINNER         FAIR      77  62  59 SE10      29.94R
YANKTON        CLEAR     68  64  88 E6        29.98R
$$

MNZ071-072-080-081-089-090-097-098-300300-
SOUTHWEST MINNESOTA

CITY           SKY/WX    TMP DP  RH WIND       PRES   REMARKS
FAIRMONT       PTCLDY    63  55  77 S7        30.03S
JACKSON        MOCLDY    64  63  94 S8        30.04R
LUVERNE        CLEAR     64  63  94 CALM      30.02R
MARSHALL       CLEAR     68  61  77 S12       29.99S
MONTEVIDEO     CLEAR     68  64  88 S8        29.99R
PIPESTONE      CLEAR     66  63  88 S7        30.01S
REDWOOD FALLS  CLEAR     66  64  93 SE8       29.99S
TRACY          PTCLDY    69  66  89 S7        30.00S
WINDOM         PTCLDY    66  63  88 CALM      30.03R
WORTHINGTON    PTCLDY    64  61  88 S8        30.03R
$$

IAZ001>003-012>014-020>022-031-032-NEZ013-014-SDZ071-300300-
NORTHWEST IOWA

CITY           SKY/WX    TMP DP  RH WIND       PRES   REMARKS
CHEROKEE       MOCLDY    65  65  99 SE6       30.04S
DENISON        CLOUDY    64  63  94 CALM      30.04R
ESTHERVILLE    MOCLDY    61  60  97 S6        30.04S
LE MARS        PTCLDY    64  63  94 S5        30.04R
ORANGE CITY    CLEAR     64  63  94 S5        30.03S
SHELDON        CLOUDY    63  63 100 S6        30.02S
SIOUX CITY     NOT AVBL
SPENCER        FOG       64  61  90 S8        30.04S VSB 3/4
STORM LAKE     CLOUDY    63  63 100 S5        30.06S
$$

ABBREVIATIONS USED IN REMARKS
   TC - TEMPERATURE IN CELSIUS
  WCI - WIND CHILL INDEX
   HX - HEAT INDEX
  VSB - VISIBILITY



USA.gov is the U.S. government's official web portal to all federal, state and local government web resources and services.